Location: Observatory
(52.1446°N, 0.4624°W)
Time: 18:23:07
(UTC+00:00)

ISS - Pass Details

Date: 28 November 2021
Orbit: 417 x 422 km, 51.6° (Epoch: 06 December)

Event Time Altitude Azimuth Distance (km) Brightness Sun altitude
Rises 16:49:27 0° 250° (WSW) 2,373 2.6 -8.0°
Reaches altitude 10° 16:51:33 10° 247° (WSW) 1,510 0.8 -8.3°
Maximum altitude 16:54:54 64° 166° (SSE) 472 -3.5 -8.8°
Enters shadow 16:57:59 12° 84° (E) 1,394 -1.7 -9.2°
